Regional Weather Roundup
Issued by NWS

Home | Current Version | Previous Version | Graphics & Text | Print | Product List | Glossary On
Versions: 1 2 3 4 5 6 7 8 9 10 11 12 13 14 15 16 17 18 19 20 21 22 23 24 25 26 27 28 29 30 31 32 33 34 35 36 37 38 39 40 41 42 43 44 45 46 47 48 49 50
000
ASUS43 KLMK 280910
RWRKY
KENTUCKY REGIONAL WEATHER ROUNDUP
NATIONAL WEATHER SERVICE LOUISVILLE KY
400 AM EST FRI NOV 28 2014

NOTE "FAIR" INDICATES FEW OR NO CLOUDS BELOW 12,000 FEET
WITH NO SIGNIFICANT WEATHER AND/OR OBSTRUCTIONS TO VISIBILITY.

KYZ001>023-026-027-061>063-070>075-281000-
WESTERN AND SOUTH CENTRAL KENTUCKY

CITY           SKY/WX    TMP DP  RH WIND       PRES   REMARKS
PADUCAH        PTCLDY    28  25  88 S3        30.42F
HENDERSON      MOCLDY    25  21  86 CALM      30.44S
OWENSBORO      MOCLDY    25  23  91 MISG      30.45S
HOPKINSVILLE   MOCLDY    28  26  92 S2        30.44F
BOWLING GREEN  PTCLDY    25  20  81 CALM      30.45S
GLASGOW        PTCLDY    21  18  91 CALM      30.43S
$$

KYZ024-025-028>034-038-045-046-053-281000-
NORTH CENTRAL KENTUCKY

CITY           SKY/WX    TMP DP  RH WIND       PRES   REMARKS
LOUISVILLE/SDF PTCLDY    26  19  74 W7        30.42S WCI  18
LOUISVILLE/LOU CLEAR     25  18  74 SW3       30.42F
FORT KNOX      CLEAR     19  17  90 CALM      30.40F
$$

KYZ035>037-039>044-047>052-055>060-089>105-281000-
NORTHEAST KENTUCKY

CITY           SKY/WX    TMP DP  RH WIND       PRES   REMARKS
LEXINGTON      CLOUDY    27  20  75 SW7       30.40R WCI  19
COVINGTON      FLURRIES  26  17  68 CALM      30.38S
FRANKFORT      MOCLDY    25  18  74 SW5       30.40R WCI  19
$$

KYZ054-064>069-076>088-106>120-281000-
SOUTHEAST KENTUCKY

CITY           SKY/WX    TMP DP  RH WIND       PRES   REMARKS
JACKSON        CLOUDY    27  17  66 VRB3      30.35F
LONDON         CLOUDY    27  16  63 W6        30.39S WCI  20
SOMERSET       CLOUDY    27  16  63 N3        30.43R
MIDDLESBORO    NOT AVBL
MONTICELLO     CLOUDY    28  21  75 CALM      30.44R
$$




USA.gov is the U.S. government's official web portal to all federal, state and local government web resources and services.